Regional Weather Roundup
Issued by NWS Huntsville, AL

Home | Current Version | Previous Version | Text Only | Print | Product List | Glossary On
Versions: 1 2 3 4 5 6 7 8 9 10 11 12 13 14 15 16 17 18 19 20 21 22 23 24 25 26 27
000
ASUS44 KHUN 280010
RWRHUN

WEATHER ROUNDUP FOR THE TENNESSEE VALLEY
NATIONAL WEATHER SERVICE HUNTSVILLE AL
700 PM CDT TUE JUN 27 2017

ALZ001>004-280100-
NORTHWEST ALABAMA

CITY           SKY/WX    TMP DP  RH WIND       PRES   REMARKS
COURTLAND HCN    N/A     79 N/A N/A MISG        N/A
RUSSELLVILLE     N/A     79 N/A N/A MISG        N/A
SHOALS AIRPORT MOSUNNY   81  60  48 E5        30.06S
6HR MIN TEMP:  79; 6HR MAX TEMP:  86;

$$

ALZ005>007-016-280100-
NORTH CENTRAL ALABAMA

CITY           SKY/WX    TMP DP  RH WIND       PRES   REMARKS
CULLMAN AG STN   N/A     79 N/A N/A NE5         N/A
DECATUR AP     SUNNY     80  61  52 N6        30.05F
6HR MIN TEMP:  79; 6HR MAX TEMP:  83;

HUNTSVILLE AP  MOSUNNY   83  59  44 NW8       30.05S
6HR MIN TEMP:  81; 6HR MAX TEMP:  85;

MERIDIANVILLE  SUNNY     77  54  44 NE3       30.06S
REDSTONE ARSN  SUNNY     76  61  58 NE3       30.04
VINEMONT AP    FAIR      77  59  53 CALM      30.09S
$$

ALZ008>010-280100-
NORTHEAST ALABAMA

CITY           SKY/WX    TMP DP  RH WIND       PRES   REMARKS
ALBERTVILLE    SUNNY     77  63  61 N7        30.06S
FORT PAYNE     MOSUNNY   77  52  41 NE6       30.05S
SCOTTSBORO AP  MOSUNNY   79  59  50 E5        30.06R
SCOTTSBORO HCN   N/A     79 N/A N/A MISG        N/A
VALLEY HEAD      N/A     72 N/A N/A MISG        N/A
$$

TNZ076-096-097-280100-
SOUTHEASTERN MIDDLE TENNESSEE

CITY           SKY/WX    TMP DP  RH WIND       PRES   REMARKS
TULLAHOMA      SUNNY     75  50  41 E3        30.09S
WINCHESTER     SUNNY     75  55  50 N5        30.07F
$$

...SURROUNDING SITES...

CITY           SKY/WX    TMP DP  RH WIND       PRES   REMARKS
ATLANTA        PTCLDY    81  52  36 N14       30.04S
ANNISTON       SUNNY     83  57  41 N5        30.04R
BIRMINGHAM     MOSUNNY   83  58  42 N9        30.05S
CHATTANOOGA    MOSUNNY   79  52  38 NE6       30.07S
CORINTH        FAIR      81  63  54 NE5       30.03F
DALTON         CLEAR     75  54  46 N3        30.06F
GADSDEN        SUNNY     80  60  50 N5        30.05R
GOLDEN TRNGL   SUNNY     84  61  45 NE7       29.98S
JACKSON TN     SUNNY     80  63  55 E5        30.04F
MEMPHIS        MOSUNNY   83  61  47 E6        30.03S
NASHVILLE      MOSUNNY   79  51  37 E6        30.07S
OXFORD MS      FAIR      81  59  47 NE6       30.04S
ROME           CLEAR     80  55  42 N8        30.05S
SAVANNAH       SUNNY     79  63  57 NE5       30.04S
SELMER         SUNNY     79  64  61 CALM      30.04F
TUPELO         SUNNY     83  59  44 N6        30.01F
TUSCALOOSA     SUNNY     85  63  47 NE10      30.01S
$$

...GULF COAST WEATHER...

CITY           SKY/WX    TMP DP  RH WIND       PRES   REMARKS
GULFPORT       CLOUDY    81  71  71 CALM      29.96F
PASCAGOULA     CLOUDY    82  70  66 SE3       29.97F
MOBILE         CLOUDY    81  69  67 NE5       29.99F
GULF SHORES    CLOUDY    79  73  82 CALM      29.98S
PENSACOLA      CLOUDY    81  67  62 NE9       29.97S
DESTIN         CLOUDY    83  76  79 NE5       29.98R HX  91
PANAMA CITY    CLOUDY    81  73  76 E5        29.97S
APPALACHICOLA  CLOUDY    79  74  84 SE8       29.98S
$$





USA.gov is the U.S. government's official web portal to all federal, state and local government web resources and services.